Year,Month,Day,Hour,Minute,Value (Times are PST for temperature in C)
2015,08,14,00,00,19.20
2015,08,14,00,01,19.20
2015,08,14,00,02,19.20
2015,08,14,00,03,19.20
2015,08,14,00,04,19.20
2015,08,14,00,05,19.20
2015,08,14,00,06,19.20
2015,08,14,00,07,19.20
2015,08,14,00,08,19.20
2015,08,14,00,09,19.10
2015,08,14,00,10,19.10
2015,08,14,00,11,19.10
2015,08,14,00,12,19.10
2015,08,14,00,13,19.10
2015,08,14,00,14,19.10
2015,08,14,00,15,19.10
2015,08,14,00,16,19.10
2015,08,14,00,17,19.10
2015,08,14,00,18,19.00
2015,08,14,00,19,19.00
2015,08,14,00,20,19.00
2015,08,14,00,21,19.00
2015,08,14,00,22,19.00
2015,08,14,00,23,18.90
2015,08,14,00,24,19.00
2015,08,14,00,25,19.00
2015,08,14,00,26,19.00
2015,08,14,00,27,19.00
2015,08,14,00,28,18.90
2015,08,14,00,29,18.90
2015,08,14,00,30,18.90
2015,08,14,00,31,18.90
2015,08,14,00,32,18.90
2015,08,14,00,33,18.80
2015,08,14,00,34,18.80
2015,08,14,00,35,18.80
2015,08,14,00,36,18.80
2015,08,14,00,37,18.80
2015,08,14,00,38,18.80
2015,08,14,00,39,18.80
2015,08,14,00,40,18.80
2015,08,14,00,41,18.80
2015,08,14,00,42,18.80
2015,08,14,00,43,18.80
2015,08,14,00,44,18.80
2015,08,14,00,45,18.80
2015,08,14,00,46,18.80
2015,08,14,00,47,18.80
2015,08,14,00,48,18.80
2015,08,14,00,49,18.80
2015,08,14,00,50,18.80
2015,08,14,00,51,18.80
2015,08,14,00,52,18.80
2015,08,14,00,53,18.80
2015,08,14,00,54,18.80
2015,08,14,00,55,18.80
2015,08,14,00,56,18.80
2015,08,14,00,57,18.80
2015,08,14,00,58,18.70
2015,08,14,00,59,18.70
2015,08,14,01,00,18.70
2015,08,14,01,01,18.70
2015,08,14,01,02,18.70
2015,08,14,01,03,18.70
2015,08,14,01,04,18.70
2015,08,14,01,05,18.60
2015,08,14,01,06,18.60
2015,08,14,01,07,18.60
2015,08,14,01,08,18.60
2015,08,14,01,09,18.60
2015,08,14,01,10,18.60
2015,08,14,01,11,18.70
2015,08,14,01,12,18.60
2015,08,14,01,13,18.60
2015,08,14,01,14,18.60
2015,08,14,01,15,18.60
2015,08,14,01,16,18.60
2015,08,14,01,17,18.60
2015,08,14,01,18,18.60
2015,08,14,01,19,18.60
2015,08,14,01,20,18.60
2015,08,14,01,21,18.60
2015,08,14,01,22,18.60
2015,08,14,01,23,18.60
2015,08,14,01,24,18.60
2015,08,14,01,25,18.60
2015,08,14,01,26,18.60
2015,08,14,01,27,18.50
2015,08,14,01,28,18.50
2015,08,14,01,29,18.50
2015,08,14,01,30,18.50
2015,08,14,01,31,18.50
2015,08,14,01,32,18.50
2015,08,14,01,33,18.50
2015,08,14,01,34,18.40
2015,08,14,01,35,18.40
2015,08,14,01,36,18.40
2015,08,14,01,37,18.40
2015,08,14,01,38,18.40
2015,08,14,01,39,18.40
2015,08,14,01,40,18.40
2015,08,14,01,41,18.40
2015,08,14,01,42,18.40
2015,08,14,01,43,18.40
2015,08,14,01,44,18.40
2015,08,14,01,45,18.40
2015,08,14,01,46,18.40
2015,08,14,01,47,18.40
2015,08,14,01,48,18.40
2015,08,14,01,49,18.30
2015,08,14,01,50,18.30
2015,08,14,01,51,18.30
2015,08,14,01,52,18.30
2015,08,14,01,53,18.30
2015,08,14,01,54,18.30
2015,08,14,01,55,18.30
2015,08,14,01,56,18.30
2015,08,14,01,57,18.30
2015,08,14,01,58,18.30
2015,08,14,01,59,18.30
2015,08,14,02,00,18.30
2015,08,14,02,01,18.30
2015,08,14,02,02,18.30
2015,08,14,02,03,18.30
2015,08,14,02,04,18.30
2015,08,14,02,05,18.30
2015,08,14,02,06,18.20
2015,08,14,02,07,18.20
2015,08,14,02,08,18.20
2015,08,14,02,09,18.20
2015,08,14,02,10,18.20
2015,08,14,02,11,18.20
2015,08,14,02,12,18.20
2015,08,14,02,13,18.20
2015,08,14,02,14,18.20
2015,08,14,02,15,18.10
2015,08,14,02,16,18.10
2015,08,14,02,17,18.10
2015,08,14,02,18,18.10
2015,08,14,02,19,18.10
2015,08,14,02,20,18.10
2015,08,14,02,21,18.10
2015,08,14,02,22,18.10
2015,08,14,02,23,18.10
2015,08,14,02,24,18.10
2015,08,14,02,25,18.10
2015,08,14,02,26,18.10
2015,08,14,02,27,18.10
2015,08,14,02,28,18.10
2015,08,14,02,29,18.10
2015,08,14,02,30,18.10
2015,08,14,02,31,18.10
2015,08,14,02,32,18.00
2015,08,14,02,33,18.00
2015,08,14,02,34,18.00
2015,08,14,02,35,18.00
2015,08,14,02,36,17.90
2015,08,14,02,37,17.90
2015,08,14,02,38,17.90
2015,08,14,02,39,17.90
2015,08,14,02,40,17.90
2015,08,14,02,41,17.90
2015,08,14,02,42,17.90
2015,08,14,02,43,17.90
2015,08,14,02,44,17.90
2015,08,14,02,45,17.90
2015,08,14,02,46,17.90
2015,08,14,02,47,18.00
2015,08,14,02,48,18.00
2015,08,14,02,49,18.00
2015,08,14,02,50,18.00
2015,08,14,02,51,18.00
2015,08,14,02,52,18.00
2015,08,14,02,53,18.00
2015,08,14,02,54,18.00
2015,08,14,02,55,18.00
2015,08,14,02,56,18.00
2015,08,14,02,57,18.00
2015,08,14,02,58,17.90
2015,08,14,02,59,17.90
2015,08,14,03,00,17.90
2015,08,14,03,01,17.90
2015,08,14,03,02,17.90
2015,08,14,03,03,17.90
2015,08,14,03,04,17.90
2015,08,14,03,05,17.90
2015,08,14,03,06,17.90
2015,08,14,03,07,17.90
2015,08,14,03,08,17.90
2015,08,14,03,09,17.90
2015,08,14,03,10,17.90
2015,08,14,03,11,17.90
2015,08,14,03,12,17.90
2015,08,14,03,13,17.90
2015,08,14,03,14,17.90
2015,08,14,03,15,17.90
2015,08,14,03,16,17.90
2015,08,14,03,17,17.90
2015,08,14,03,18,17.90
2015,08,14,03,19,17.90
2015,08,14,03,20,17.90
2015,08,14,03,21,17.90
2015,08,14,03,22,17.80
2015,08,14,03,23,17.80
2015,08,14,03,24,17.80
2015,08,14,03,25,17.80
2015,08,14,03,26,17.80
2015,08,14,03,27,17.80
2015,08,14,03,28,17.80
2015,08,14,03,29,17.80
2015,08,14,03,30,17.80
2015,08,14,03,31,17.80
2015,08,14,03,32,17.80
2015,08,14,03,33,17.80
2015,08,14,03,34,17.70
2015,08,14,03,35,17.70
2015,08,14,03,36,17.70
2015,08,14,03,37,17.70
2015,08,14,03,38,17.70
2015,08,14,03,39,17.70
2015,08,14,03,40,17.70
2015,08,14,03,41,17.70
2015,08,14,03,42,17.70
2015,08,14,03,43,17.70
2015,08,14,03,44,17.70
2015,08,14,03,45,17.70
2015,08,14,03,46,17.70
2015,08,14,03,47,17.70
2015,08,14,03,48,17.60
2015,08,14,03,49,17.60
2015,08,14,03,50,17.60
2015,08,14,03,51,17.60
2015,08,14,03,52,17.60
2015,08,14,03,53,17.60
2015,08,14,03,54,17.60
2015,08,14,03,55,17.60
2015,08,14,03,56,17.60
2015,08,14,03,57,17.60
2015,08,14,03,58,17.60
2015,08,14,03,59,17.60
2015,08,14,04,00,17.60
2015,08,14,04,01,17.60
2015,08,14,04,02,17.60
2015,08,14,04,03,17.60
2015,08,14,04,04,17.60
2015,08,14,04,05,17.60
2015,08,14,04,06,17.60
2015,08,14,04,07,17.60
2015,08,14,04,08,17.60
2015,08,14,04,09,17.60
2015,08,14,04,10,17.70
2015,08,14,04,11,17.70
2015,08,14,04,12,17.70
2015,08,14,04,13,17.70
2015,08,14,04,14,17.70
2015,08,14,04,15,17.80
2015,08,14,04,16,17.80
2015,08,14,04,17,17.80
2015,08,14,04,18,17.80
2015,08,14,04,19,17.80
2015,08,14,04,20,17.80
2015,08,14,04,21,17.80
2015,08,14,04,22,17.80
2015,08,14,04,23,17.80
2015,08,14,04,24,17.80
2015,08,14,04,25,17.80
2015,08,14,04,26,17.80
2015,08,14,04,27,17.80
2015,08,14,04,28,17.80
2015,08,14,04,29,17.80
2015,08,14,04,30,17.80
2015,08,14,04,31,17.80
2015,08,14,04,32,17.80
2015,08,14,04,33,17.80
2015,08,14,04,34,17.80
2015,08,14,04,35,17.80
2015,08,14,04,36,17.80
2015,08,14,04,37,17.80
2015,08,14,04,38,17.80
2015,08,14,04,39,17.80
2015,08,14,04,40,17.80
2015,08,14,04,41,17.80
2015,08,14,04,42,17.80
2015,08,14,04,43,17.80
2015,08,14,04,44,17.80
2015,08,14,04,45,17.80
2015,08,14,04,46,17.80
2015,08,14,04,47,17.80
2015,08,14,04,48,17.70
2015,08,14,04,49,17.70
2015,08,14,04,50,17.70
2015,08,14,04,51,17.70
2015,08,14,04,52,17.70
2015,08,14,04,53,17.70
2015,08,14,04,54,17.70
2015,08,14,04,55,17.70
2015,08,14,04,56,17.70
2015,08,14,04,57,17.80
2015,08,14,04,58,17.70
2015,08,14,04,59,17.70
2015,08,14,05,00,17.70
2015,08,14,05,01,17.70
2015,08,14,05,02,17.70
2015,08,14,05,03,17.70
2015,08,14,05,04,17.70
2015,08,14,05,05,17.70
2015,08,14,05,06,17.60
2015,08,14,05,07,17.60
2015,08,14,05,08,17.60
2015,08,14,05,09,17.60
2015,08,14,05,10,17.60
2015,08,14,05,11,17.60
2015,08,14,05,12,17.60
2015,08,14,05,13,17.60
2015,08,14,05,14,17.60
2015,08,14,05,15,17.60
2015,08,14,05,16,17.60
2015,08,14,05,17,17.60
2015,08,14,05,18,17.60
2015,08,14,05,19,17.60
2015,08,14,05,20,17.60
2015,08,14,05,21,17.60
2015,08,14,05,22,17.60
2015,08,14,05,23,17.60
2015,08,14,05,24,17.60
2015,08,14,05,25,17.60
2015,08,14,05,26,17.60
2015,08,14,05,27,17.60
2015,08,14,05,28,17.60
2015,08,14,05,29,17.60
2015,08,14,05,30,17.60
2015,08,14,05,31,17.60
2015,08,14,05,32,17.50
2015,08,14,05,33,17.50
2015,08,14,05,34,17.50
2015,08,14,05,35,17.50
2015,08,14,05,36,17.40
2015,08,14,05,37,17.40
2015,08,14,05,38,17.40
2015,08,14,05,39,17.40
2015,08,14,05,40,17.40
2015,08,14,05,41,17.40
2015,08,14,05,42,17.40
2015,08,14,05,43,17.40
2015,08,14,05,44,17.40
2015,08,14,05,45,17.40
2015,08,14,05,46,17.40
2015,08,14,05,47,17.40
2015,08,14,05,48,17.40
2015,08,14,05,49,17.40
2015,08,14,05,50,17.40
2015,08,14,05,51,17.30
2015,08,14,05,52,17.30
2015,08,14,05,53,17.30
2015,08,14,05,54,17.30
2015,08,14,05,55,17.30
2015,08,14,05,56,17.30
2015,08,14,05,57,17.30
2015,08,14,05,58,17.30
2015,08,14,05,59,17.30
2015,08,14,06,00,17.30
2015,08,14,06,01,17.30
2015,08,14,06,02,17.30
2015,08,14,06,03,17.30
2015,08,14,06,04,17.30
2015,08,14,06,05,17.30
2015,08,14,06,06,17.30
2015,08,14,06,07,17.30
2015,08,14,06,08,17.30
2015,08,14,06,09,17.30
2015,08,14,06,10,17.30
2015,08,14,06,11,17.30
2015,08,14,06,12,17.30
2015,08,14,06,13,17.30
2015,08,14,06,14,17.30
2015,08,14,06,15,17.30
2015,08,14,06,16,17.30
2015,08,14,06,17,17.30
2015,08,14,06,18,17.20
2015,08,14,06,19,17.20
2015,08,14,06,20,17.20
2015,08,14,06,21,17.20
2015,08,14,06,22,17.20
2015,08,14,06,23,17.20
2015,08,14,06,24,17.20
2015,08,14,06,25,17.20
2015,08,14,06,26,17.30
2015,08,14,06,27,17.30
2015,08,14,06,28,17.30
2015,08,14,06,29,17.30
2015,08,14,06,30,17.30
2015,08,14,06,31,17.30
2015,08,14,06,32,17.30
2015,08,14,06,33,17.30
2015,08,14,06,34,17.30
2015,08,14,06,35,17.30
2015,08,14,06,36,17.30
2015,08,14,06,37,17.30
2015,08,14,06,38,17.30
2015,08,14,06,39,17.30
2015,08,14,06,40,17.30
2015,08,14,06,41,17.30
2015,08,14,06,42,17.30
2015,08,14,06,43,17.30
2015,08,14,06,44,17.30
2015,08,14,06,45,17.30
2015,08,14,06,46,17.30
2015,08,14,06,47,17.30
2015,08,14,06,48,17.20
2015,08,14,06,49,17.20
2015,08,14,06,50,17.20
2015,08,14,06,51,17.20
2015,08,14,06,52,17.20
2015,08,14,06,53,17.20
2015,08,14,06,54,17.20
2015,08,14,06,55,17.20
2015,08,14,06,56,17.20
2015,08,14,06,57,17.20
2015,08,14,06,58,17.20
2015,08,14,06,59,17.30
2015,08,14,07,00,17.30
2015,08,14,07,01,17.30
2015,08,14,07,02,17.30
2015,08,14,07,03,17.30
2015,08,14,07,04,17.30
2015,08,14,07,05,17.30
2015,08,14,07,06,17.30
2015,08,14,07,07,17.30
2015,08,14,07,08,17.30
2015,08,14,07,09,17.30
2015,08,14,07,10,17.30
2015,08,14,07,11,17.30
2015,08,14,07,12,17.30
2015,08,14,07,13,17.30
2015,08,14,07,14,17.30
2015,08,14,07,15,17.30
2015,08,14,07,16,17.40
2015,08,14,07,17,17.40
2015,08,14,07,18,17.40
2015,08,14,07,19,17.40
2015,08,14,07,20,17.40
2015,08,14,07,21,17.40
2015,08,14,07,22,17.40
2015,08,14,07,23,17.40
2015,08,14,07,24,17.40
2015,08,14,07,25,17.40
2015,08,14,07,26,17.30
2015,08,14,07,27,17.30
2015,08,14,07,28,17.30
2015,08,14,07,29,17.30
2015,08,14,07,30,17.30
2015,08,14,07,31,17.30
2015,08,14,07,32,17.30
2015,08,14,07,33,17.30
2015,08,14,07,34,17.30
2015,08,14,07,35,17.30
2015,08,14,07,36,17.30
2015,08,14,07,37,17.30
2015,08,14,07,38,17.30
2015,08,14,07,39,17.30
2015,08,14,07,40,17.30
2015,08,14,07,41,17.30
2015,08,14,07,42,17.30
2015,08,14,07,43,17.30
2015,08,14,07,44,17.30
2015,08,14,07,45,17.30
2015,08,14,07,46,17.30
2015,08,14,07,47,17.30
2015,08,14,07,48,17.20
2015,08,14,07,49,17.30
2015,08,14,07,50,17.30
2015,08,14,07,51,17.30
2015,08,14,07,52,17.30
2015,08,14,07,53,17.30
2015,08,14,07,54,17.30
2015,08,14,07,55,17.30
2015,08,14,07,56,17.30
2015,08,14,07,57,17.30
2015,08,14,07,58,17.30
2015,08,14,07,59,17.30
2015,08,14,08,00,17.30
2015,08,14,08,01,17.30
2015,08,14,08,02,17.30
2015,08,14,08,03,17.30
2015,08,14,08,04,17.30
2015,08,14,08,05,17.30
2015,08,14,08,06,17.30
2015,08,14,08,07,17.30
2015,08,14,08,08,17.30
2015,08,14,08,09,17.30
2015,08,14,08,10,17.30
2015,08,14,08,11,17.30
2015,08,14,08,12,17.30
2015,08,14,08,13,17.30
2015,08,14,08,14,17.30
2015,08,14,08,15,17.30
2015,08,14,08,16,17.30
2015,08,14,08,17,17.30
2015,08,14,08,18,17.30
2015,08,14,08,19,17.20
2015,08,14,08,20,17.20
2015,08,14,08,21,17.20
2015,08,14,08,22,17.20
2015,08,14,08,23,17.30
2015,08,14,08,24,17.30
2015,08,14,08,25,17.30
2015,08,14,08,26,17.30
2015,08,14,08,27,17.30
2015,08,14,08,28,17.30
2015,08,14,08,29,17.30
2015,08,14,08,30,17.30
2015,08,14,08,31,17.30
2015,08,14,08,32,17.30
2015,08,14,08,33,17.30
2015,08,14,08,34,17.30
2015,08,14,08,35,17.40
2015,08,14,08,36,17.40
2015,08,14,08,37,17.40
2015,08,14,08,38,17.40
2015,08,14,08,39,17.40
2015,08,14,08,40,17.40
2015,08,14,08,41,17.40
2015,08,14,08,42,17.40
2015,08,14,08,43,17.40
2015,08,14,08,44,17.40
2015,08,14,08,45,17.40
2015,08,14,08,46,17.40
2015,08,14,08,47,17.40
2015,08,14,08,48,17.40
2015,08,14,08,49,17.40
2015,08,14,08,50,17.40
2015,08,14,08,51,17.40
2015,08,14,08,52,17.40
2015,08,14,08,53,17.40
2015,08,14,08,54,17.40
2015,08,14,08,55,17.40
2015,08,14,08,56,17.40
2015,08,14,08,57,17.40
2015,08,14,08,58,17.40
2015,08,14,08,59,17.40
2015,08,14,09,00,17.40
2015,08,14,09,01,17.40
2015,08,14,09,02,17.40
2015,08,14,09,03,17.40
2015,08,14,09,04,17.30
2015,08,14,09,05,17.30
2015,08,14,09,06,17.40
2015,08,14,09,07,17.40
2015,08,14,09,08,17.40
2015,08,14,09,09,17.40
2015,08,14,09,10,17.40
2015,08,14,09,11,17.40
2015,08,14,09,12,17.40
2015,08,14,09,13,17.40
2015,08,14,09,14,17.40
2015,08,14,09,15,17.50
2015,08,14,09,16,17.50
2015,08,14,09,17,17.50
2015,08,14,09,18,17.60
2015,08,14,09,19,17.60
2015,08,14,09,20,17.60
2015,08,14,09,21,17.60
2015,08,14,09,22,17.60
2015,08,14,09,23,17.70
2015,08,14,09,24,17.70
2015,08,14,09,25,17.60
2015,08,14,09,26,17.60
2015,08,14,09,27,17.60
2015,08,14,09,28,17.70
2015,08,14,09,29,17.70
2015,08,14,09,30,17.70
2015,08,14,09,31,17.70
2015,08,14,09,32,17.70
2015,08,14,09,33,17.70
2015,08,14,09,34,17.70
2015,08,14,09,35,17.70
2015,08,14,09,36,17.70
2015,08,14,09,37,17.70
2015,08,14,09,38,17.70
2015,08,14,09,39,17.70
2015,08,14,09,40,17.70
2015,08,14,09,41,17.70
2015,08,14,09,42,17.70
2015,08,14,09,43,17.70
2015,08,14,09,44,17.70
2015,08,14,09,45,17.70
2015,08,14,09,46,17.70
2015,08,14,09,47,17.70
2015,08,14,09,48,17.70
2015,08,14,09,49,17.70
2015,08,14,09,50,17.70
2015,08,14,09,51,17.70
2015,08,14,09,52,17.80
2015,08,14,09,53,17.80
2015,08,14,09,54,17.90
2015,08,14,09,55,17.90
2015,08,14,09,56,17.90
2015,08,14,09,57,18.00
2015,08,14,09,58,18.10
2015,08,14,09,59,18.10
2015,08,14,10,00,18.20
2015,08,14,10,01,18.30
2015,08,14,10,02,18.30
2015,08,14,10,03,18.40
2015,08,14,10,04,18.50
2015,08,14,10,05,18.60
2015,08,14,10,06,18.60
2015,08,14,10,07,18.70
2015,08,14,10,08,18.80
2015,08,14,10,09,18.80
2015,08,14,10,10,18.80
2015,08,14,10,11,18.90
2015,08,14,10,12,18.90
2015,08,14,10,13,19.00
2015,08,14,10,14,19.00
2015,08,14,10,15,19.10
2015,08,14,10,16,19.10
2015,08,14,10,17,19.10
2015,08,14,10,18,19.10
2015,08,14,10,19,19.20
2015,08,14,10,20,19.20
2015,08,14,10,21,19.20
2015,08,14,10,22,19.30
2015,08,14,10,23,19.30
2015,08,14,10,24,19.40
2015,08,14,10,25,19.40
2015,08,14,10,26,19.50
2015,08,14,10,27,19.50
2015,08,14,10,28,19.60
2015,08,14,10,29,19.70
2015,08,14,10,30,19.70
2015,08,14,10,31,19.80
2015,08,14,10,32,19.80
2015,08,14,10,33,19.90
2015,08,14,10,34,20.00
2015,08,14,10,35,20.00
2015,08,14,10,36,20.10
2015,08,14,10,37,20.20
2015,08,14,10,38,20.20
2015,08,14,10,39,20.30
2015,08,14,10,40,20.30
2015,08,14,10,41,20.30
2015,08,14,10,42,20.40
2015,08,14,10,43,20.40
2015,08,14,10,44,20.40
2015,08,14,10,45,20.40
2015,08,14,10,46,20.50
2015,08,14,10,47,20.50
2015,08,14,10,48,20.50
2015,08,14,10,49,20.60
2015,08,14,10,50,20.60
2015,08,14,10,51,20.60
2015,08,14,10,52,20.70
2015,08,14,10,53,20.70
2015,08,14,10,54,20.70
2015,08,14,10,55,20.80
2015,08,14,10,56,20.80
2015,08,14,10,57,20.90
2015,08,14,10,58,21.00
2015,08,14,10,59,21.00
2015,08,14,11,00,21.10
2015,08,14,11,01,21.20
2015,08,14,11,02,21.30
2015,08,14,11,03,21.50
2015,08,14,11,04,21.60
2015,08,14,11,05,21.80
2015,08,14,11,06,22.00
2015,08,14,11,07,22.20
2015,08,14,11,08,22.30
2015,08,14,11,09,22.40
2015,08,14,11,10,22.60
2015,08,14,11,11,22.60
2015,08,14,11,12,22.70
2015,08,14,11,13,22.80
2015,08,14,11,14,22.90
2015,08,14,11,15,22.90
2015,08,14,11,16,23.00
2015,08,14,11,17,23.10
2015,08,14,11,18,23.10
2015,08,14,11,19,23.10
2015,08,14,11,20,23.10
2015,08,14,11,21,23.10
2015,08,14,11,22,23.10
2015,08,14,11,23,23.10
2015,08,14,11,24,23.00
2015,08,14,11,25,22.80
2015,08,14,11,26,22.70
2015,08,14,11,27,22.50
2015,08,14,11,28,22.40
2015,08,14,11,29,22.30
2015,08,14,11,30,22.10
2015,08,14,11,31,22.00
2015,08,14,11,32,22.00
2015,08,14,11,33,21.90
2015,08,14,11,34,21.80
2015,08,14,11,35,21.80
2015,08,14,11,36,21.70
2015,08,14,11,37,21.70
2015,08,14,11,38,21.70
2015,08,14,11,39,21.70
2015,08,14,11,40,21.70
2015,08,14,11,41,21.70
2015,08,14,11,42,21.70
2015,08,14,11,43,21.80
2015,08,14,11,44,21.80
2015,08,14,11,45,21.80
2015,08,14,11,46,21.80
2015,08,14,11,47,21.80
2015,08,14,11,48,21.90
2015,08,14,11,49,22.00
2015,08,14,11,50,22.00
2015,08,14,11,51,22.00
2015,08,14,11,52,21.90
2015,08,14,11,53,21.80
2015,08,14,11,54,21.60
2015,08,14,11,55,21.50
2015,08,14,11,56,21.50
2015,08,14,11,57,21.30
2015,08,14,11,58,21.20
2015,08,14,11,59,21.10
2015,08,14,12,00,21.10
2015,08,14,12,01,21.00
2015,08,14,12,02,21.00
2015,08,14,12,03,21.00
2015,08,14,12,04,21.10
2015,08,14,12,05,21.10
2015,08,14,12,06,21.10
2015,08,14,12,07,21.10
2015,08,14,12,08,21.10
2015,08,14,12,09,21.20
2015,08,14,12,10,21.20
2015,08,14,12,11,21.30
2015,08,14,12,12,21.40
2015,08,14,12,13,21.40
2015,08,14,12,14,21.40
2015,08,14,12,15,21.30
2015,08,14,12,16,21.30
2015,08,14,12,17,21.20
2015,08,14,12,18,21.20
2015,08,14,12,19,21.10
2015,08,14,12,20,21.00
2015,08,14,12,21,20.90
2015,08,14,12,22,20.90
2015,08,14,12,23,20.80
2015,08,14,12,24,20.80
2015,08,14,12,25,20.80
2015,08,14,12,26,20.70
2015,08,14,12,27,20.60
2015,08,14,12,28,20.60
2015,08,14,12,29,20.60
2015,08,14,12,30,20.60
2015,08,14,12,31,20.60
2015,08,14,12,32,20.60
2015,08,14,12,33,20.60
2015,08,14,12,34,20.70
2015,08,14,12,35,20.80
2015,08,14,12,36,20.80
2015,08,14,12,37,20.90
2015,08,14,12,38,21.00
2015,08,14,12,39,21.00
2015,08,14,12,40,21.10
2015,08,14,12,41,21.20
2015,08,14,12,42,21.20
2015,08,14,12,43,21.20
2015,08,14,12,44,21.20
2015,08,14,12,45,21.20
2015,08,14,12,46,21.20
2015,08,14,12,47,21.20
2015,08,14,12,48,21.30
2015,08,14,12,49,21.40
2015,08,14,12,50,21.40
2015,08,14,12,51,21.40
2015,08,14,12,52,21.40
2015,08,14,12,53,21.40
2015,08,14,12,54,21.40
2015,08,14,12,55,21.40
2015,08,14,12,56,21.40
2015,08,14,12,57,21.40
2015,08,14,12,58,21.40
2015,08,14,12,59,21.40
2015,08,14,13,00,21.40
2015,08,14,13,01,21.40
2015,08,14,13,02,21.30
2015,08,14,13,03,21.30
2015,08,14,13,04,21.30
2015,08,14,13,05,21.30
2015,08,14,13,06,21.30
2015,08,14,13,07,21.30
2015,08,14,13,08,21.30
2015,08,14,13,09,21.40
2015,08,14,13,10,21.40
2015,08,14,13,11,21.40
2015,08,14,13,12,21.40
2015,08,14,13,13,21.30
2015,08,14,13,14,21.30
2015,08,14,13,15,21.40
2015,08,14,13,16,21.50
2015,08,14,13,17,21.50
2015,08,14,13,18,21.50
2015,08,14,13,19,21.50
2015,08,14,13,20,21.50
2015,08,14,13,21,21.50
2015,08,14,13,22,21.50
2015,08,14,13,23,21.50
2015,08,14,13,24,21.60
2015,08,14,13,25,21.60
2015,08,14,13,26,21.60
2015,08,14,13,27,21.70
2015,08,14,13,28,21.70
2015,08,14,13,29,21.70
2015,08,14,13,30,21.60
2015,08,14,13,31,21.60
2015,08,14,13,32,21.70
2015,08,14,13,33,21.70
2015,08,14,13,34,21.70
2015,08,14,13,35,21.60
2015,08,14,13,36,21.60
2015,08,14,13,37,21.50
2015,08,14,13,38,21.40
2015,08,14,13,39,21.40
2015,08,14,13,40,21.30
2015,08,14,13,41,21.30
2015,08,14,13,42,21.20
2015,08,14,13,43,21.20
2015,08,14,13,44,21.10
2015,08,14,13,45,21.10
2015,08,14,13,46,21.00
2015,08,14,13,47,21.00
2015,08,14,13,48,21.10
2015,08,14,13,49,21.10
2015,08,14,13,50,21.00
2015,08,14,13,51,21.00
2015,08,14,13,52,21.00
2015,08,14,13,53,20.90
2015,08,14,13,54,20.90
2015,08,14,13,55,20.90
2015,08,14,13,56,20.90
2015,08,14,13,57,20.80
2015,08,14,13,58,20.80
2015,08,14,13,59,20.70
2015,08,14,14,00,20.70
2015,08,14,14,01,20.70
2015,08,14,14,02,20.70
2015,08,14,14,03,20.70
2015,08,14,14,04,20.70
2015,08,14,14,05,20.70
2015,08,14,14,06,20.70
2015,08,14,14,07,20.70
2015,08,14,14,08,20.70
2015,08,14,14,09,20.70
2015,08,14,14,10,20.70
2015,08,14,14,11,20.70
2015,08,14,14,12,20.60
2015,08,14,14,13,20.60
2015,08,14,14,14,20.50
2015,08,14,14,15,20.50
2015,08,14,14,16,20.60
2015,08,14,14,17,20.60
2015,08,14,14,18,20.60
2015,08,14,14,19,20.70
2015,08,14,14,20,20.70
2015,08,14,14,21,20.80
2015,08,14,14,22,20.80
2015,08,14,14,23,20.80
2015,08,14,14,24,20.80
2015,08,14,14,25,20.80
2015,08,14,14,26,20.80
2015,08,14,14,27,20.80
2015,08,14,14,28,20.70
2015,08,14,14,29,20.60
2015,08,14,14,30,20.50
2015,08,14,14,31,20.40
2015,08,14,14,32,20.40
2015,08,14,14,33,20.40
2015,08,14,14,34,20.40
2015,08,14,14,35,20.50
2015,08,14,14,36,20.50
2015,08,14,14,37,20.60
2015,08,14,14,38,20.70
2015,08,14,14,39,20.70
2015,08,14,14,40,20.80
2015,08,14,14,41,20.90
2015,08,14,14,42,21.00
2015,08,14,14,43,21.00
2015,08,14,14,44,21.10
2015,08,14,14,45,21.20
2015,08,14,14,46,21.20
2015,08,14,14,47,21.10
2015,08,14,14,48,21.10
2015,08,14,14,49,21.10
2015,08,14,14,50,21.10
2015,08,14,14,51,21.10
2015,08,14,14,52,21.10
2015,08,14,14,53,21.10
2015,08,14,14,54,21.00
2015,08,14,14,55,21.10
2015,08,14,14,56,21.10
2015,08,14,14,57,21.10
2015,08,14,14,58,21.10
2015,08,14,14,59,21.00
2015,08,14,15,00,21.10
2015,08,14,15,01,21.20
2015,08,14,15,02,21.30
2015,08,14,15,03,21.30
2015,08,14,15,04,21.20
2015,08,14,15,05,21.10
2015,08,14,15,06,21.10
2015,08,14,15,07,21.10
2015,08,14,15,08,21.10
2015,08,14,15,09,21.10
2015,08,14,15,10,21.10
2015,08,14,15,11,21.00
2015,08,14,15,12,21.00
2015,08,14,15,13,21.00
2015,08,14,15,14,20.90
2015,08,14,15,15,20.90
2015,08,14,15,16,20.80
2015,08,14,15,17,20.80
2015,08,14,15,18,20.80
2015,08,14,15,19,20.70
2015,08,14,15,20,20.60
2015,08,14,15,21,20.50
2015,08,14,15,22,20.40
2015,08,14,15,23,20.40
2015,08,14,15,24,20.40
2015,08,14,15,25,20.40
2015,08,14,15,26,20.30
2015,08,14,15,27,20.30
2015,08,14,15,28,20.20
2015,08,14,15,29,20.20
2015,08,14,15,30,20.20
2015,08,14,15,31,20.20
2015,08,14,15,32,20.20
2015,08,14,15,33,20.20
2015,08,14,15,34,20.20
2015,08,14,15,35,20.10
2015,08,14,15,36,20.10
2015,08,14,15,37,20.10
2015,08,14,15,38,20.10
2015,08,14,15,39,20.10
2015,08,14,15,40,20.00
2015,08,14,15,41,20.00
2015,08,14,15,42,19.90
2015,08,14,15,43,19.90
2015,08,14,15,44,19.90
2015,08,14,15,45,19.80
2015,08,14,15,46,19.80
2015,08,14,15,47,19.80
2015,08,14,15,48,19.80
2015,08,14,15,49,19.70
2015,08,14,15,50,19.70
2015,08,14,15,51,19.80
2015,08,14,15,52,19.80
2015,08,14,15,53,19.80
2015,08,14,15,54,19.80
2015,08,14,15,55,19.80
2015,08,14,15,56,19.80
2015,08,14,15,57,19.80
2015,08,14,15,58,19.80
2015,08,14,15,59,19.80
2015,08,14,16,00,19.80
2015,08,14,16,01,19.70
2015,08,14,16,02,19.70
2015,08,14,16,03,19.70
2015,08,14,16,04,19.70
2015,08,14,16,05,19.70
2015,08,14,16,06,19.70
2015,08,14,16,07,19.70
2015,08,14,16,08,19.70
2015,08,14,16,09,19.60
2015,08,14,16,10,19.60
2015,08,14,16,11,19.50
2015,08,14,16,12,19.50
2015,08,14,16,13,19.40
2015,08,14,16,14,19.40
2015,08,14,16,15,19.40
2015,08,14,16,16,19.30
2015,08,14,16,17,19.30
2015,08,14,16,18,19.20
2015,08,14,16,19,19.20
2015,08,14,16,20,19.20
2015,08,14,16,21,19.10
2015,08,14,16,22,19.10
2015,08,14,16,23,19.10
2015,08,14,16,24,19.00
2015,08,14,16,25,19.00
2015,08,14,16,26,18.90
2015,08,14,16,27,18.90
2015,08,14,16,28,18.80
2015,08,14,16,29,18.80
2015,08,14,16,30,18.70
2015,08,14,16,31,18.70
2015,08,14,16,32,18.70
2015,08,14,16,33,18.70
2015,08,14,16,34,18.70
2015,08,14,16,35,18.60
2015,08,14,16,36,18.60
2015,08,14,16,37,18.60
2015,08,14,16,38,18.60
2015,08,14,16,39,18.60
2015,08,14,16,40,18.60
2015,08,14,16,41,18.50
2015,08,14,16,42,18.50
2015,08,14,16,43,18.50
2015,08,14,16,44,18.40
2015,08,14,16,45,18.40
2015,08,14,16,46,18.40
2015,08,14,16,47,18.40
2015,08,14,16,48,18.30
2015,08,14,16,49,18.30
2015,08,14,16,50,18.30
2015,08,14,16,51,18.20
2015,08,14,16,52,18.20
2015,08,14,16,53,18.20
2015,08,14,16,54,18.20
2015,08,14,16,55,18.20
2015,08,14,16,56,18.20
2015,08,14,16,57,18.20
2015,08,14,16,58,18.20
2015,08,14,16,59,18.20
2015,08,14,17,00,18.20
2015,08,14,17,01,18.20
2015,08,14,17,02,18.20
2015,08,14,17,03,18.20
2015,08,14,17,04,18.20
2015,08,14,17,05,18.20
2015,08,14,17,06,18.10
2015,08,14,17,07,18.10
2015,08,14,17,08,18.10
2015,08,14,17,09,18.10
2015,08,14,17,10,18.10
2015,08,14,17,11,18.10
2015,08,14,17,12,18.10
2015,08,14,17,13,18.10
2015,08,14,17,14,18.10
2015,08,14,17,15,18.10
2015,08,14,17,16,18.10
2015,08,14,17,17,18.10
2015,08,14,17,18,18.00
2015,08,14,17,19,18.00